Tracking 29892 objects as of 21-Nov-2024
HD Live streaming from Space Station
objects crossing your sky now

STARLINK-3625

Track STARLINK-3625 now!
10-day predictions
STARLINK-3625 is classified as:


NORAD ID: 51777
Int'l Code: 2022-017K
Perigee: 546.0 km
Apogee: 547.8 km
Inclination: 53.2 °
Period: 95.4 minutes
Semi major axis: 6917 km
RCS: Unknown
Launch date: February 25, 2022
Source: United States (US)
Launch site: AIR FORCE WESTERN TEST RANGE (AFWTR)
Your satellite tracking list
Your tracking list is empty




NASA's NSSDC Master Catalog

Two Line Element Set (TLE):
1 51777U 22017K   24325.38336846  .00007948  00000-0  51694-3 0  9992
2 51777  53.2182 308.3341 0001351  85.6365 274.4781 15.08838861150990
Source of the keplerian elements: AFSPC